Home   Weather   Maple Ridge   Past weeks

Flag for Canada Past Weather in Maple Ridge, British Columbia, Canada — Yesterday and Last 2 Weeks

Now
56 °F

Cool.


Feels Like: 54 °F
Forecast: 54 / 67 °F
Wind: 8 mph from Northeast

Location: P. Meadows Coastal Station

Current Time: Sep 25, 2016 at 3:49:53 AM

Latest Report: Sep 25, 2016 at 3:00 AM


Visibility: N/A

Pressure: 30.40 "Hg

Humidity: 85%

Dew Point: 51 °F

Location of Maple RidgeLocation

Past Weather in Maple Ridge — Graph

°F

Maple Ridge Temperature Yesterday

Maximum temperature yesterday: 63 °F (at 4:00 PM)
Minimum temperature yesterday: 52 °F (at 7:00 AM)
Average temperature yesterday: 57 °F

High & Low Weather Summary for the Past Weeks

 TemperatureHumidityPressure
High77 °F (Sep 13, 4:00 PM)99% (Sep 19, 9:00 AM)30.42 "Hg (Sep 19, 9:00 AM)
Low44 °F (Sep 21, 7:00 AM)28% (Sep 12, 2:00 PM)29.81 "Hg (Sep 17, 12:00 PM)
Average59 °F76%30.08 "Hg
* Reported Sep 10 2:00 AM — Sep 25 2:00 AM, Maple Ridge, Weather by CustomWeather, © 2016

Note: Actual official high and low records may vary slightly from our data, if they occured in-between our weather recording intervals... More about our weather records

Advertising

Maple Ridge Weather History for the Previous 24 Hours

Scroll right to see more
 ConditionsComfort  
Time TempWeatherWind HumidityBarometerVisibility
2:00 AM
Sun, Sep 25
55 °FCool.5 mph92%30.41 "HgN/A
1:00 AM56 °FCool.No wind89%30.41 "HgN/A
12:00 AM56 °FCool.1 mph90%30.42 "HgN/A
11:00 PM
Sat, Sep 24
56 °FCool.3 mph86%30.40 "HgN/A
10:00 PM57 °FCool.2 mph85%30.40 "HgN/A
9:00 PM58 °FCool.1 mph84%30.39 "HgN/A
8:00 PM60 °FCool.2 mph75%30.37 "HgN/A
7:00 PM60 °FCool.No wind72%30.34 "HgN/A
6:00 PM62 °FCool.2 mph67%30.35 "HgN/A
5:00 PM62 °FMild.3 mph65%30.36 "HgN/A
4:00 PM63 °FMild.1 mph65%30.36 "HgN/A
3:00 PM62 °FCool.2 mph68%30.37 "HgN/A
2:00 PM61 °FCool.2 mph71%30.38 "HgN/A
1:00 PM60 °FCool.2 mph74%30.40 "HgN/A
12:00 PM58 °FCool.2 mph78%30.40 "HgN/A
11:00 AM56 °FCool.2 mph86%30.41 "HgN/A
10:00 AM56 °FCool.1 mph88%30.39 "HgN/A
9:00 AM55 °FCool.1 mph89%30.36 "HgN/A
8:00 AM54 °FCool.1 mph94%30.34 "HgN/A
7:00 AM52 °FCool.2 mph94%30.32 "HgN/A
6:00 AM53 °FCool.5 mph94%30.30 "HgN/A
5:00 AM53 °FCool.1 mph85%30.28 "HgN/A
4:00 AM54 °FCool.2 mph92%30.26 "HgN/A
3:00 AM54 °FCool.No wind93%30.24 "HgN/A
Weather by CustomWeather, © 2016

See weather overviewHow to use our weather pages